Voltar ao catálogo

ARIANE 1 DEB

AtivoHEO
NORAD 25768·DEBRIS·🇫🇷 France

Lançado Dec 24, 1979 de Guiana Space Centre

Loading…

Próximas Passagens (próximas 24 horas)

TLE

EnvelhecendoSource: Space-Track

Época: Aug 28, 2026, 23:54 UTC

1 25768U 79104K   26240.99613933 -.00000301  00000-0 -27205-2 0  9990
2 25768  17.6715 129.7795 5191919 232.5014  10.4858  4.81746593247410

Acompanhe ARIANE 1 DEB em tempo real com AllMySat

Download on the App Store